Home > Weather > Leicester > Past weeks

Flag for United Kingdom Past Weather in Leicester, England, United Kingdom — Yesterday and Last 2 Weeks

Now
54 °F

Clear.


Feels Like: 51 °F
Forecast: 56 / 67 °F
Wind: 8 mph from West

Location: East Midlands

Current Time: Jul 28, 2016 at 5:56:34 AM

Latest Report: Jul 28, 2016 at 5:20 AM


Visibility: 10 mi

Pressure: 29.98 "Hg

Humidity: 88%

Dew Point: 50 °F

Location of LeicesterLocation

Past Weather in Leicester — Graph

°F

Leicester Temperature Yesterday

Maximum temperature yesterday: 70 °F (at 3:50 PM)
Minimum temperature yesterday: 57 °F (at 9:50 PM)
Average temperature yesterday: 64 °F

High & Low Weather Summary for the Past Weeks

 TemperatureHumidityPressure
High88 °F (Jul 19, 3:20 PM)100% (Jul 16, 11:20 AM)30.30 "Hg (Jul 16, 11:20 AM)
Low48 °F (Jul 13, 4:20 AM)35% (Jul 19, 11:50 AM)29.68 "Hg (Jul 20, 9:20 AM)
Average65 °F75%30.08 "Hg
* Reported Jul 13 4:20 AM — Jul 28 4:20 AM, Leicester, Weather by CustomWeather, © 2016

Note: Actual official high and low records may vary slightly from our data, if they occured in-between our weather recording intervals... More about our weather records

Advertising

Leicester Weather History for the Previous 24 Hours

Scroll right to see more
 ConditionsComfort  
Time TempWeatherWind HumidityBarometerVisibility
4:20 AM
Thu, Jul 28
54 °FClear.8 mph88%29.98 "Hg10 mi
3:50 AM54 °FPassing clouds.9 mph88%29.98 "HgN/A
3:20 AM54 °FPassing clouds.8 mph88%30.01 "HgN/A
2:50 AM54 °FPassing clouds.10 mph88%30.01 "HgN/A
2:20 AM55 °FPassing clouds.7 mph82%30.01 "HgN/A
1:50 AM54 °FPassing clouds.6 mph88%30.01 "HgN/A
1:20 AM54 °FPassing clouds.7 mph88%30.01 "HgN/A
12:50 AM52 °FClear.8 mph88%30.01 "Hg10 mi
12:20 AM52 °FClear.6 mph88%30.01 "Hg10 mi
11:20 PM
Wed, Jul 27
57 °FClear.7 mph77%30.01 "Hg10 mi
10:50 PM57 °FClear.6 mph77%30.01 "Hg10 mi
10:20 PM57 °FClear.6 mph72%30.01 "Hg10 mi
9:50 PM57 °FSunny.7 mph72%30.01 "Hg10 mi
9:20 PM59 °FSunny.8 mph68%30.01 "Hg10 mi
8:50 PM61 °FSunny.8 mph63%30.01 "Hg10 mi
8:20 PM61 °FSunny.9 mph68%30.01 "Hg10 mi
7:50 PM63 °FSunny.8 mph64%29.98 "Hg10 mi
7:20 PM64 °FSunny.9 mph60%29.98 "Hg10 mi
6:50 PM66 °FPassing clouds.8 mph56%29.98 "HgN/A
6:20 PM66 °FPassing clouds.10 mph56%29.98 "HgN/A
5:50 PM68 °FPassing clouds.12 mph56%29.98 "HgN/A
5:20 PM70 °FScattered clouds.12 mph53%29.98 "HgN/A
4:50 PM68 °FScattered clouds.12 mph56%29.98 "HgN/A
4:20 PM70 °FScattered clouds.13 mph53%29.98 "HgN/A
3:50 PM70 °FPartly sunny.13 mph57%29.98 "HgN/A
3:20 PM68 °FBroken clouds.14 mph64%29.98 "HgN/A
2:50 PM68 °FPartly sunny.12 mph64%29.98 "HgN/A
2:20 PM68 °FPartly sunny.13 mph64%29.98 "HgN/A
1:50 PM68 °FPartly sunny.12 mph64%29.98 "HgN/A
1:20 PM68 °FPartly sunny.12 mph64%29.98 "HgN/A
12:50 PM68 °FPartly sunny.14 mph64%29.95 "HgN/A
12:20 PM68 °FPartly sunny.14 mph64%29.95 "HgN/A
11:50 AM68 °FScattered clouds.14 mph69%29.95 "HgN/A
11:20 AM68 °FScattered clouds.10 mph73%29.95 "HgN/A
10:50 AM64 °FPartly sunny.13 mph78%29.95 "HgN/A
10:20 AM64 °FBroken clouds.12 mph78%29.95 "HgN/A
9:50 AM64 °FScattered showers. Broken clouds.13 mph83%29.92 "HgN/A
9:20 AM64 °FScattered showers. Broken clouds.16 mph88%29.92 "HgN/A
8:50 AM63 °FBroken clouds.15 mph94%29.92 "HgN/A
8:20 AM63 °FMostly cloudy.13 mph94%29.92 "HgN/A
7:50 AM63 °FBroken clouds.14 mph94%29.92 "HgN/A
7:20 AM63 °FDrizzle. Broken clouds.14 mph88%29.92 "Hg6 mi
6:50 AM61 °FSprinkles. Partly sunny.16 mph94%29.89 "HgN/A
6:20 AM61 °FMore clouds than sun.16 mph94%29.89 "HgN/A
5:50 AM61 °FScattered showers. Passing clouds.15 mph94%29.89 "HgN/A
5:20 AM61 °FRain. Partly cloudy.15 mph94%29.89 "Hg4 mi
Weather by CustomWeather, © 2016

See weather overviewHow to use our weather pages